Heubes-Wetterstation in 44289 Dortmund
Heubes-Wetterstation

Messwerte der letzten 60 Minuten im Minuten-Intervall (Wetterstation 44289 Dortmund)

Datum & Uhrzeit Temp. Feucht. Wind-Ø Böen Sekt.  Regen Rate Luftdruck
22.09.2018 - 11:0314.7 °C73%10 km/h 16 km/h S-SW0.0 mm 0.0 mm 1020.1 hPa, gleichbleibend
22.09.2018 - 11:0214.7 °C74%10 km/h 21 km/h S-SW0.0 mm 0.0 mm 1020.1 hPa, langsam fallend
22.09.2018 - 11:0114.6 °C73%10 km/h 18 km/h S0.0 mm 0.0 mm 1020.2 hPa, langsam steigend
22.09.2018 - 11:0014.6 °C74%10 km/h 19 km/h SW0.0 mm 0.0 mm 1020.1 hPa, gleichbleibend
22.09.2018 - 10:5914.6 °C74%10 km/h 23 km/h S-SW0.0 mm 0.0 mm 1020.1 hPa, gleichbleibend
22.09.2018 - 10:5814.5 °C74%10 km/h 19 km/h W-SW0.0 mm 0.0 mm 1020.1 hPa, gleichbleibend
22.09.2018 - 10:5714.4 °C74%10 km/h 14 km/h W-SW0.0 mm 0.0 mm 1020.1 hPa, gleichbleibend
22.09.2018 - 10:5614.3 °C75%10 km/h 18 km/h W-SW0.0 mm 0.0 mm 1020.1 hPa, gleichbleibend
22.09.2018 - 10:5514.2 °C76%10 km/h 7 km/h W-SW0.0 mm 0.0 mm 1020.1 hPa, langsam steigend
22.09.2018 - 10:5414.2 °C75%11 km/h 16 km/h SW0.0 mm 0.0 mm 1020.0 hPa, gleichbleibend
22.09.2018 - 10:5314.1 °C75.5%10 km/h 16 km/h S-SW0.0 mm 0.0 mm 1020.0 hPa, gleichbleibend
22.09.2018 - 10:5214.0 °C76%10 km/h 18 km/h W-SW0.0 mm 0.0 mm 1020.0 hPa, gleichbleibend
22.09.2018 - 10:5113.8 °C76%10 km/h 21 km/h SW0.0 mm 0.0 mm 1020.0 hPa, gleichbleibend
22.09.2018 - 10:5013.8 °C75%10 km/h 16 km/h S0.0 mm 0.0 mm 1020.0 hPa, gleichbleibend
22.09.2018 - 10:4913.8 °C75%11 km/h 18 km/h S-SW0.0 mm 0.0 mm 1020.0 hPa, gleichbleibend
22.09.2018 - 10:4813.8 °C76%11 km/h 21 km/h W-SW0.0 mm 0.0 mm 1020.0 hPa, gleichbleibend
22.09.2018 - 10:4713.7 °C76%10 km/h 18 km/h S-SW0.0 mm 0.0 mm 1020.0 hPa, gleichbleibend
22.09.2018 - 10:4613.7 °C75.3%10 km/h 10 km/h S-SW0.0 mm 0.0 mm 1020.0 hPa, gleichbleibend
22.09.2018 - 10:4513.6 °C76%10 km/h 14 km/h SW0.0 mm 0.0 mm 1020.0 hPa, langsam fallend
22.09.2018 - 10:4413.6 °C75%10 km/h 18 km/h W-SW0.0 mm 0.0 mm 1020.1 hPa, langsam fallend
22.09.2018 - 10:4313.7 °C75%10 km/h 14 km/h SW0.0 mm 0.0 mm 1020.2 hPa, langsam steigend
22.09.2018 - 10:4213.7 °C75%10 km/h 18 km/h S0.0 mm 0.0 mm 1020.1 hPa, gleichbleibend
22.09.2018 - 10:4113.7 °C75%10 km/h 21 km/h SW0.0 mm 0.0 mm 1020.1 hPa, gleichbleibend
22.09.2018 - 10:4013.7 °C75.5%10 km/h 18 km/h S0.0 mm 0.0 mm 1020.1 hPa, gleichbleibend
22.09.2018 - 10:3913.7 °C76%10 km/h 19 km/h SW0.0 mm 0.0 mm 1020.1 hPa, langsam fallend
22.09.2018 - 10:3813.6 °C76%10 km/h 19 km/h S-SW0.0 mm 0.0 mm 1020.2 hPa, langsam steigend
22.09.2018 - 10:3713.6 °C76.5%11 km/h 8 km/h S-SW0.0 mm 0.0 mm 1020.1 hPa, gleichbleibend
22.09.2018 - 10:3613.5 °C76.5%11 km/h 16 km/h W-SW0.0 mm 0.0 mm 1020.1 hPa, gleichbleibend
22.09.2018 - 10:3513.4 °C76%10 km/h 18 km/h SW0.0 mm 0.0 mm 1020.1 hPa, gleichbleibend
22.09.2018 - 10:3413.4 °C76.5%10 km/h 18 km/h SW0.0 mm 0.0 mm 1020.1 hPa, langsam fallend
22.09.2018 - 10:3313.3 °C77%10 km/h 13 km/h S-SW0.0 mm 0.0 mm 1020.2 hPa, gleichbleibend
22.09.2018 - 10:3213.3 °C77%10 km/h 19 km/h W-SW0.0 mm 0.0 mm 1020.2 hPa, langsam steigend
22.09.2018 - 10:3113.3 °C77%10 km/h 26 km/h SW0.0 mm 0.0 mm 1020.1 hPa, gleichbleibend
22.09.2018 - 10:3013.3 °C77%8 km/h 32 km/h W0.0 mm 0.0 mm 1020.1 hPa, gleichbleibend
22.09.2018 - 10:2913.2 °C78%8 km/h 18 km/h SW0.0 mm 0.0 mm 1020.1 hPa, gleichbleibend
22.09.2018 - 10:2813.2 °C78%8 km/h 14 km/h S-SW0.0 mm 0.0 mm 1020.1 hPa, gleichbleibend
22.09.2018 - 10:2713.2 °C77%8 km/h 19 km/h S-SW0.0 mm 0.0 mm 1020.1 hPa, gleichbleibend
22.09.2018 - 10:2613.2 °C77.2%8 km/h 21 km/h W-SW0.0 mm 0.0 mm 1020.1 hPa, gleichbleibend
22.09.2018 - 10:2513.1 °C78%8 km/h 16 km/h S-SW0.0 mm 0.0 mm 1020.1 hPa, gleichbleibend
22.09.2018 - 10:2413.1 °C78%8 km/h 11 km/h W0.0 mm 0.0 mm 1020.1 hPa, gleichbleibend
22.09.2018 - 10:2313.1 °C78%8 km/h 23 km/h SW0.0 mm 0.0 mm 1020.1 hPa, gleichbleibend
22.09.2018 - 10:2213.1 °C78%8 km/h 19 km/h SW0.0 mm 0.0 mm 1020.1 hPa, gleichbleibend
22.09.2018 - 10:2113.1 °C78%8 km/h 10 km/h SW0.0 mm 0.0 mm 1020.1 hPa, gleichbleibend
22.09.2018 - 10:2013.1 °C78%8 km/h 16 km/h SW0.0 mm 0.0 mm 1020.1 hPa, gleichbleibend
22.09.2018 - 10:1913.1 °C78.5%8 km/h 21 km/h SW0.0 mm 0.0 mm 1020.1 hPa, gleichbleibend
22.09.2018 - 10:1813.0 °C79%8 km/h 16 km/h S0.0 mm 0.0 mm 1020.1 hPa, langsam steigend
22.09.2018 - 10:1713.0 °C79%8 km/h 18 km/h W-SW0.0 mm 0.0 mm 1020.0 hPa, gleichbleibend
22.09.2018 - 10:1612.9 °C78%8 km/h 24 km/h S-SW0.0 mm 0.0 mm 1020.0 hPa, gleichbleibend
22.09.2018 - 10:1512.9 °C78%8 km/h 11 km/h S-SW0.0 mm 0.0 mm 1020.0 hPa, gleichbleibend
22.09.2018 - 10:1412.9 °C78.5%8 km/h 16 km/h SW0.0 mm 0.0 mm 1020.0 hPa, gleichbleibend
22.09.2018 - 10:1313.0 °C79%10 km/h 21 km/h SW0.0 mm 0.0 mm 1020.0 hPa, gleichbleibend
22.09.2018 - 10:1213.0 °C79%10 km/h 16 km/h S-SW0.0 mm 0.0 mm 1020.0 hPa, langsam fallend
22.09.2018 - 10:1113.0 °C79%10 km/h 26 km/h S-SW0.0 mm 0.0 mm 1020.1 hPa, langsam steigend
22.09.2018 - 10:1013.0 °C79%10 km/h 18 km/h W-SW0.0 mm 0.0 mm 1020.0 hPa, gleichbleibend
22.09.2018 - 10:0913.0 °C79%10 km/h 19 km/h SW0.0 mm 0.0 mm 1020.0 hPa, gleichbleibend
22.09.2018 - 10:0813.0 °C79%10 km/h 11 km/h W-SW0.0 mm 0.0 mm 1020.0 hPa, gleichbleibend
22.09.2018 - 10:0713.0 °C78%8 km/h 19 km/h W-SW0.0 mm 0.0 mm 1020.0 hPa, langsam steigend
22.09.2018 - 10:0613.0 °C78%8 km/h 19 km/h S-SW0.0 mm 0.0 mm 1019.9 hPa, gleichbleibend
22.09.2018 - 10:0513.0 °C78.7%8 km/h 18 km/h SW0.0 mm 0.0 mm 1019.9 hPa, gleichbleibend
22.09.2018 - 10:0413.1 °C79%8 km/h 18 km/h SW0.0 mm 0.0 mm 1019.9 hPa, gleichbleibend